Regional Weather Roundup
Issued by NWS

Home | Current Version | Previous Version | Graphics & Text | Print | Product List | Glossary On
Versions: 1 2 3 4 5 6 7 8 9 10 11 12 13 14 15 16 17 18 19 20 21 22 23 24 25 26 27 28 29 30 31 32 33 34 35 36 37 38 39 40 41 42 43 44 45 46 47 48 49 50
000
ASUS45 KCYS 240110
RWRWY

WYOMING REGIONAL WEATHER ROUNDUP
NATIONAL WEATHER SERVICE CHEYENNE WY
700 PM MDT WED JUL 23 2014

NOTE:  "FAIR" INDICATES FEW OR NO CLOUDS BELOW 12,000 FEET
WITH NO SIGNIFICANT WEATHER AND/OR OBSTRUCTIONS TO VISIBILITY.

WYZ001-240200-
YELLOWSTONE NATIONAL PARK

CITY           SKY/WX    TMP DP  RH WIND       PRES   REMARKS
LK YELLOWSTONE   N/A     77  35  21 VRB5      30.32F
W YELLOWSTONE  NOT AVBL

$$
WYZ002>013-054>058-071-098>099-240200-
NORTHERN WYOMING

CITY           SKY/WX    TMP DP  RH WIND       PRES   REMARKS
JACKSON        NOT AVBL
CODY           NOT AVBL
GREYBULL       MOSUNNY   97  43  15 E13       29.90F HX  93
WORLAND        MOSUNNY   98  36  11 SW14      29.92F HX  93
SHERIDAN       PTSUNNY   94  41  16 VRB6      29.96F HX  90
BUFFALO        MOSUNNY   89  55  31 NW12      30.05S
GILLETTE       LGT RAIN  86  62  44 SE20G28   30.03S
HULETT         FAIR      84  59  42 MISG      30.07
NEWCASTLE      FAIR      86  52  30 MISG      30.10

$$
WYZ014>020-022>026-101>103-240200-
CENTRAL WYOMING

CITY           SKY/WX    TMP DP  RH WIND       PRES   REMARKS
BIG PINEY      MOSUNNY   86  39  19 W12       30.25F
PINEDALE       PTCLDY    86  32  14 SW12      30.26S
DUBOIS         FAIR      82  30  15 W8        30.24F
LANDER         CLOUDY    88  36  15 S21G30    30.11F
RIVERTON       PTSUNNY   90  35  14 SW17G28   30.09S
CASPER         PTSUNNY   91  45  20 SE8       30.06F
DOUGLAS        MOSUNNY   87  50  27 S21G31    30.11R

$$
WYZ021-027>030-104>119-240200-
SOUTHERN WYOMING

CITY           SKY/WX    TMP DP  RH WIND       PRES   REMARKS
EVANSTON       MOSUNNY   88  39  17 W10       30.25F
KEMMERER       PTCLDY   N/A N/A N/A SW17      30.26F
FORT BRIDGER   FAIR      83  39  20 S32G38    30.29R
ROCK SPRINGS   PTSUNNY   85  31  14 NW8       30.23F
DIXON          FAIR      89  29  11 S7G31     30.25S
RAWLINS        PTSUNNY   89  22   8 W12       30.25S
SARATOGA       FAIR      90  30  12 S8        30.27F
LARAMIE        PTSUNNY   77  42  28 MISG      30.36R
CHEYENNE       MOSUNNY   78  61  55 S16G25    30.27F
TORRINGTON     CLOUDY    86  63  45 SE6       30.09F
PINE BLUFFS    FAIR      84  63  48 W7        30.21F HAZE

$$


USA.gov is the U.S. government's official web portal to all federal, state and local government web resources and services.